Weather in Preobrazhenka

Russia / Irkutsk Oblast     60°01′27″N   108°05′31″E
temp.,
°C
wind,
m/s
gust,
m/s
humid.,
%
clouds,
%
prec.,
mm/h
press.,
hPa
HPBL,
m
21 june, mon
mon2123:00+14s228597 0.6 100316
02:00+14se228488 0.6 100526
05:00+13ese11905 0.0 100417
08:00+19s237028 0.0 1004408
11:00+25ese124547 0.0 10041376
14:00+17nw238896 1.4 100387
17:00+17w248250 0.4 1004128
20:00+16nne118994 2.0 100419
22 june, tue
tue2223:00+15ssw119072 0.0 100411
02:00+15nw119068 0.0 100411
05:00+14ssw11925 0.0 100511
08:00+20sse11725 0.0 1005286
11:00+25wsw23485 0.0 10051473
14:00+26w4442100 0.0 10052438
17:00+25wnw444824 0.0 10071325
20:00+22wnw366371 0.0 1008361
23 june, wed
wed2323:00+15nw228396 0.0 101020
02:00+14nnw118745 0.0 101114
05:00+14n13905 0.0 101182
08:00+19n2362100 0.0 1011472
11:00+24ne224962 0.0 10101213
14:00+28n1242100 0.0 10082154
17:00+24ne365979 0.0 1008293
20:00+24ene37599 0.0 1007303
24 june, thu
thu2423:00+18ene2776100 0.0 1007136
02:00+18n1177100 0.0 100726
05:00+17ne1182100 0.0 100711
08:00+22w126497 0.0 1006393
11:00+27wsw114757 0.0 1005981
14:00+29wsw233842 0.0 10041813
17:00+30w123586 0.0 10032147
20:00+24nnw37657 0.0 1004285
25 june, fri
fri2523:00+19n278711 0.0 1004145
02:00+17nw118813 0.1 100411
05:00+17n248984 0.0 1004106
08:00+23nnw236348 0.0 1003410
11:00+28nw22476 0.0 10031080
14:00+30wnw32395 0.0 10021770
17:00+26ene3457100 0.7 1003657
20:00+19wsw3593100 7.8 1005140